GFSWCAN_500_rhum_129.txt.gz
RH
96 100 52 34 21 31 25 14 58 100 100 100 100 100 100 100 100 100 100 100 100 100 100 99 98 100 100 100 100 84 38 22 6 5 4 4 5 5 5 4 3 4 4 5 7 47 74 63 77 78 98 98 99 100
100 83 55 48 35 32 21 15 91 100 100 100 100 100 100 100 100 100 100 100 100 95 100 98 100 99 94 90 52 47 36 8 6 6 6 5 5 5 4 4 4 4 6 17 26 40 60 70 83 96 100 100 100 100
100 87 69 55 40 28 18 28 100 100 100 100 100 100 100 100 100 100 100 100 99 99 94 95 99 100 97 88 45 30 13 8 7 6 6 5 6 5 5 4 4 5 6 8 16 43 59 76 94 99 100 98 100 96
100 100 70 50 34 24 19 52 100 100 100 100 100 100 100 100 100 100 100 100 100 100 93 97 96 99 100 80 42 19 10 10 8 6 5 5 5 5 5 4 4 6 9 13 17 40 67 94 100 100 100 100 100 99
100 81 63 42 31 24 32 98 100 100 100 100 100 100 100 100 100 100 100 100 100 93 98 100 100 100 97 82 40 18 11 9 9 6 5 5 5 5 5 5 6 9 11 13 17 41 84 82 98 100 100 100 100 100
98 76 54 42 33 26 82 100 100 100 100 100 100 100 100 97 100 100 100 98 97 96 95 100 95 100 97 69 34 20 14 10 7 6 5 5 6 6 5 6 8 9 8 7 8 25 67 97 95 100 100 100 100 100
99 74 52 45 32 27 97 100 99 100 99 100 100 100 100 100 100 100 99 100 99 100 100 100 100 100 86 41 34 26 13 9 6 6 6 6 6 5 7 10 12 12 10 7 5 6 23 48 82 99 97 78 93 70
100 80 52 47 40 51 98 100 100 100 100 100 100 100 100 100 100 100 100 100 100 100 100 94 96 100 99 76 36 18 11 8 6 7 7 6 6 6 10 13 17 17 17 16 15 11 8 45 68 91 100 83 49 42
99 100 76 51 43 58 99 100 100 100 100 100 100 100 100 100 100 100 100 96 97 100 100 100 97 96 98 75 42 25 9 8 8 7 7 8 7 8 10 15 20 20 20 20 23 22 17 16 72 92 91 86 58 49
100 99 88 65 60 65 100 100 99 100 100 99 100 100 100 100 100 98 100 99 100 98 100 100 100 99 94 79 50 20 12 9 8 8 9 6 7 9 13 15 19 26 27 28 30 29 25 20 29 82 99 100 100 100
98 97 99 79 72 88 100 100 97 98 99 100 100 100 100 100 98 100 100 99 94 98 100 100 100 98 78 50 23 20 11 10 9 10 8 7 9 12 14 14 22 26 26 25 22 20 25 27 34 48 89 100 100 100
86 94 97 87 96 97 99 100 100 99 100 100 100 100 100 100 100 99 90 88 92 100 100 100 95 100 83 60 28 16 12 11 10 9 7 8 9 13 14 16 18 19 19 19 23 33 36 32 39 60 86 100 100 94
90 67 66 95 93 92 99 100 100 100 100 100 99 100 100 93 100 92 83 83 90 96 99 100 99 98 85 61 22 16 13 11 10 9 8 9 13 15 16 15 12 16 40 55 51 44 54 48 47 78 99 100 97 81
79 88 83 86 95 90 92 99 100 99 100 100 100 100 97 100 92 89 83 92 100 100 100 100 100 98 74 46 25 16 15 12 10 9 10 11 13 15 14 12 18 49 62 67 48 54 56 56 50 80 100 100 93 81
100 100 99 92 82 78 83 100 100 100 100 100 100 100 97 96 97 96 97 97 99 99 100 100 99 95 68 41 24 19 16 13 11 11 10 12 15 17 16 17 34 50 58 71 42 37 35 34 36 66 100 96 82 84
97 94 88 92 91 88 95 100 100 100 100 100 100 99 98 99 100 99 97 98 98 99 100 100 97 82 48 27 23 20 17 14 15 11 12 14 15 18 19 24 38 47 50 72 42 23 23 25 36 71 94 90 86 82
100 100 100 98 99 100 100 100 100 100 100 100 100 100 100 100 100 100 98 97 100 100 100 99 90 58 43 27 24 22 20 19 14 13 13 14 16 18 20 20 38 41 43 62 66 40 46 53 56 59 67 72 74 66
82 95 100 100 100 100 100 100 100 100 100 100 100 100 100 100 100 99 100 99 100 100 100 93 77 59 38 29 28 26 24 20 16 15 16 17 18 18 21 21 21 39 38 48 57 52 55 52 56 61 64 61 60 62
52 54 78 95 96 99 99 100 100 100 100 100 99 100 100 100 99 100 100 100 100 100 94 77 58 40 36 34 32 28 24 20 19 18 17 19 19 21 23 22 19 21 40 38 58 51 48 53 56 59 61 60 57 53
47 39 42 63 78 95 94 100 100 100 99 99 99 99 100 100 100 100 100 100 100 92 76 60 50 45 44 40 34 30 26 22 19 19 19 19 19 21 24 26 24 22 27 57 66 73 62 47 51 58 61 61 60 56
45 46 44 50 71 97 100 98 100 100 100 100 100 100 100 99 96 100 100 100 100 91 75 71 66 62 54 46 38 34 28 24 24 22 21 22 23 25 30 30 28 27 28 31 67 94 96 94 89 86 80 73 74 79
46 43 52 70 82 93 100 100 100 100 100 98 98 96 94 96 98 100 100 100 99 92 84 80 80 78 71 58 47 39 34 30 26 25 24 27 32 34 38 38 27 28 36 43 46 54 82 91 86 78 79 81 80 84
75 68 44 62 76 83 95 96 100 100 99 100 100 96 98 100 100 98 96 97 100 97 96 96 94 88 72 52 40 36 34 34 31 28 26 30 39 39 46 46 34 33 34 39 49 70 91 98 95 88 86 91 93 90
88 72 49 49 65 76 87 94 96 97 97 94 98 100 100 100 100 100 100 100 100 96 94 88 84 76 61 44 33 28 26 26 25 25 25 26 34 45 53 49 49 56 52 43 37 51 77 98 100 100 100 93 88 86
67 56 55 46 62 78 82 88 91 95 100 100 98 100 100 100 99 100 100 99 94 89 87 84 76 62 50 41 32 26 24 24 24 26 27 26 26 30 55 66 68 63 52 44 37 37 49 73 94 99 94 86 84 84
49 49 47 50 65 80 80 83 85 89 95 99 100 100 100 100 97 96 100 98 88 82 68 53 43 38 35 32 30 29 29 31 33 34 33 30 26 25 36 68 72 50 45 40 33 34 41 58 80 83 80 81 84 95
41 44 58 65 79 83 87 90 92 90 92 94 96 92 92 91 87 77 75 68 59 50 44 40 38 37 36 36 36 33 30 27 26 26 26 29 26 26 31 35 38 45 42 35 34 35 44 64 72 74 78 87 100 100
50 54 63 73 76 77 82 83 83 83 79 74 66 60 55 51 49 45 43 40 39 38 37 36 35 30 26 25 30 47 71 86 92 89 80 72 68 66 66 57 50 44 39 35 34 42 60 68 75 81 99 100 100 100
69 60 62 66 65 62 55 52 51 49 48 47 46 46 43 43 40 37 31 25 22 21 20 20 24 35 53 65 68 68 67 68 69 67 64 66 64 58 48 43 43 41 36 36 45 58 72 82 100 100 100 100 100 100
36 37 36 36 34 35 33 33 31 28 27 27 26 25 25 30 41 49 46 48 54 56 55 58 66 69 67 62 60 63 68 68 60 56 47 45 42 39 34 34 37 39 44 56 78 95 100 100 100 100 100 100 100 100
69 68 64 57 60 58 57 60 63 61 59 58 59 61 66 65 67 70 76 78 77 76 75 71 65 65 70 82 90 93 92 91 79 62 53 46 41 41 49 74 93 99 100 100 100 100 100 100 100 100 100 100 100 97
100 100 100 100 100 100 94 80 70 60 59 49 49 45 49 49 50 55 72 76 80 76 74 76 86 93 98 99 100 97 90 87 99 100 100 100 100 100 100 100 100 100 100 100 100 100 100 100 100 100 100 97 91 86
100 100 100 100 100 100 100 100 100 97 82 68 60 62 68 74 83 99 99 96 98 99 100 100 100 100 100 100 100 100 100 100 100 100 100 100 100 100 100 100 100 100 100 100 100 100 100 100 100 99 94 87 78 69

GFSWCAN_500_rhum_132.txt.gz
RH
100 100 100 66 33 25 17 16 21 16 42 97 100 100 100 100 100 100 100 100 100 100 98 100 96 100 93 100 100 100 99 100 99 97 21 7 8 5 7 6 5 4 5 4 4 4 23 67 76 73 78 76 72 82
100 97 99 67 36 22 20 23 22 47 100 100 100 100 100 100 100 100 100 100 98 96 100 99 98 95 98 88 94 98 98 100 91 17 9 6 4 5 6 5 5 6 5 5 6 14 20 36 56 53 62 78 88 100
100 100 93 95 67 27 33 28 22 99 100 100 100 100 100 100 100 100 100 100 100 98 98 96 95 99 100 99 100 100 98 81 13 7 6 5 5 5 5 5 5 6 4 4 4 8 8 12 26 42 57 98 100 100
98 100 100 93 47 42 36 24 54 100 100 100 100 100 100 100 100 100 100 100 100 100 100 100 99 99 100 100 98 99 44 16 8 7 7 6 6 7 7 6 6 5 5 5 5 6 8 14 39 64 88 100 100 100
100 100 98 65 57 42 30 34 59 100 100 100 100 100 100 100 100 100 100 100 100 96 99 100 100 100 100 82 45 83 30 10 8 7 6 5 6 7 6 6 6 5 5 5 7 9 12 19 27 70 97 100 100 100
100 93 87 73 52 33 36 68 76 98 100 100 100 98 100 100 96 96 100 100 100 100 96 97 100 100 100 99 75 52 22 11 8 5 6 5 6 8 7 7 6 5 5 7 8 8 7 10 25 68 84 100 100 100
100 100 91 62 39 35 53 65 97 100 100 100 100 100 100 100 100 100 100 100 100 100 98 100 100 100 100 96 56 40 17 9 8 6 6 6 7 8 7 6 6 5 8 11 12 10 7 5 18 57 82 96 98 100
100 98 76 49 36 65 91 98 100 100 99 100 100 100 100 100 100 100 100 100 100 99 96 100 100 100 98 92 76 38 18 14 11 7 6 7 8 8 7 6 5 6 12 16 16 16 17 15 9 22 87 87 100 78
100 94 52 45 46 95 100 100 100 100 100 100 100 100 100 100 100 99 99 100 100 100 100 100 98 95 99 88 50 57 56 27 11 8 7 8 8 7 6 5 5 8 14 17 18 19 20 24 22 14 49 100 100 94
91 61 59 56 67 97 100 100 100 100 100 99 97 100 100 100 100 100 100 98 99 100 100 100 100 100 100 82 76 69 49 14 13 8 7 9 7 6 6 5 7 10 12 15 22 24 26 29 29 24 22 72 98 100
82 67 65 74 76 86 98 100 100 100 100 100 100 100 100 100 100 100 100 98 98 100 98 100 96 89 98 100 85 70 38 26 14 9 9 8 7 6 6 6 9 10 11 15 22 25 24 22 22 25 27 38 83 94
84 71 68 83 91 92 100 100 100 100 100 100 100 100 100 100 98 91 94 94 95 98 99 100 100 99 96 98 91 72 48 41 10 9 10 8 7 7 6 8 11 10 11 12 14 16 19 24 30 30 33 45 66 94
88 71 73 82 97 99 98 99 100 100 100 98 100 100 100 98 97 88 90 88 87 100 99 94 99 100 98 94 90 50 67 17 13 11 10 8 7 7 7 10 12 10 10 12 30 45 45 44 48 53 45 70 98 100
77 72 77 91 97 95 100 100 98 94 94 99 100 99 84 86 83 99 97 95 100 100 100 99 98 97 100 98 95 92 56 20 12 12 10 9 8 8 9 11 12 10 18 38 54 46 37 47 57 63 57 83 100 100
64 59 67 79 82 94 99 98 100 100 100 100 99 96 93 100 100 98 96 100 100 98 97 99 97 100 100 100 99 74 29 18 12 12 20 15 10 10 11 12 13 14 27 44 57 46 29 31 35 41 43 68 99 100
50 49 64 70 73 82 98 100 100 100 99 100 92 94 94 93 100 100 100 100 99 99 100 100 96 100 100 94 83 74 40 18 15 13 14 12 11 12 13 14 14 16 26 38 47 53 27 22 23 25 28 43 84 98
89 91 73 61 59 75 95 100 100 98 98 100 100 98 100 100 98 100 100 100 100 100 100 100 100 100 96 89 80 64 30 21 17 14 12 13 13 14 15 16 17 18 23 33 39 51 46 40 48 51 47 50 63 76
100 88 72 77 78 81 90 99 100 99 100 100 100 97 98 100 100 100 100 100 100 100 98 98 100 100 97 86 78 44 27 23 18 15 15 15 15 16 17 16 17 20 19 24 37 39 50 49 52 56 60 61 66 70
100 100 84 76 83 92 99 100 100 100 100 100 98 98 97 98 97 100 100 100 100 98 100 100 100 100 84 81 70 43 34 25 22 20 18 18 16 15 16 16 18 21 20 19 21 37 43 56 49 50 55 56 59 61
60 77 94 92 94 94 99 100 98 97 95 100 100 96 99 100 100 100 100 100 100 100 100 100 100 97 85 62 56 38 33 30 27 25 22 20 17 17 17 17 16 18 20 20 20 20 28 53 73 80 63 53 56 61
39 35 51 75 89 100 100 100 100 100 100 100 96 94 98 100 100 100 100 100 100 100 100 100 88 85 70 51 45 52 46 35 31 27 25 22 20 20 20 20 21 22 25 27 26 23 23 27 41 82 99 98 96 95
39 31 39 57 80 96 100 99 100 100 99 100 100 99 98 100 100 100 100 100 100 100 97 91 84 70 59 58 66 73 71 51 35 30 27 25 24 23 23 23 26 27 32 38 31 28 28 31 39 40 63 88 92 98
40 37 35 72 82 89 97 97 100 100 98 99 100 100 100 100 100 99 100 100 100 100 99 88 78 76 79 83 88 88 82 67 48 38 35 33 30 28 26 26 31 33 36 44 40 40 41 39 37 38 53 73 92 100
53 45 37 47 70 81 87 96 97 99 98 99 100 100 100 100 98 100 100 100 100 100 100 97 95 96 99 100 100 88 72 54 39 32 29 26 26 25 24 24 25 27 34 48 50 52 56 50 44 40 39 41 58 80
72 62 48 36 55 70 77 85 93 96 100 100 100 100 100 97 100 100 100 100 100 100 100 100 100 100 100 95 89 77 58 43 32 25 25 24 24 25 28 30 30 28 27 42 63 68 68 54 44 40 35 35 42 57
85 62 41 31 36 60 72 79 87 92 95 97 96 98 95 96 97 97 100 100 98 100 99 100 98 94 91 83 63 44 36 34 34 34 34 35 36 35 34 33 32 29 26 27 46 66 64 48 45 38 35 36 47 68
68 57 34 34 48 61 74 77 80 82 89 96 100 100 100 99 99 100 97 99 98 96 96 93 85 67 49 42 40 39 38 38 37 36 31 27 26 28 31 30 32 36 33 33 38 47 54 50 41 37 38 46 61 77
40 32 31 57 72 77 85 87 87 86 84 84 86 88 90 90 90 86 85 81 73 64 55 47 43 40 38 36 35 33 29 26 22 23 40 64 73 73 77 80 80 78 77 71 59 51 47 45 38 38 44 63 92 100
40 37 60 72 77 76 80 85 82 80 78 76 72 66 61 58 51 48 46 44 42 40 38 34 29 26 22 20 20 20 24 39 57 60 58 55 51 52 48 48 48 51 53 46 36 34 36 39 46 70 99 100 100 100
68 64 67 66 61 58 51 48 48 44 42 42 42 40 40 40 39 36 33 30 25 23 23 25 28 32 33 46 60 66 66 62 58 56 57 58 55 60 56 49 43 39 36 36 46 73 96 100 100 100 100 100 100 100
58 51 45 42 42 40 40 37 37 36 30 26 25 24 24 24 28 35 37 40 44 42 45 56 57 56 54 56 60 60 57 60 66 75 82 83 73 62 72 88 94 96 99 100 100 100 100 100 100 100 100 100 100 100
100 100 98 95 91 69 68 62 56 50 47 42 44 42 44 45 46 48 49 50 53 54 47 47 43 45 52 64 76 82 86 92 99 95 86 90 100 100 100 100 100 100 100 100 100 100 100 100 100 100 100 99 94 87
100 100 100 100 100 100 99 96 90 82 65 53 45 39 36 36 39 46 43 47 55 65 78 91 97 100 100 99 100 100 100 100 100 100 100 100 100 100 100 100 100 100 100 100 100 100 100 100 100 98 92 85 74 60

GFSWCAN_500_rhum_138.txt.gz
RH
94 100 100 100 100 100 98 84 69 63 59 56 54 48 47 48 41 25 71 87 100 99 98 100 100 93 100 100 100 99 100 94 91 100 100 100 99 98 97 100 99 82 11 4 4 4 4 7 8 10 12 14 16 16
99 100 100 100 100 100 94 71 74 68 66 69 62 60 52 42 22 33 98 74 87 95 100 100 92 97 100 93 91 100 100 100 100 100 100 100 100 94 99 100 61 19 9 9 6 6 6 6 5 5 5 5 6 6
100 100 100 100 96 100 97 77 78 81 90 74 49 30 24 11 39 100 98 95 84 85 89 88 87 99 100 100 100 100 96 100 100 100 100 100 98 100 100 87 84 29 20 10 7 8 6 5 6 5 4 4 6 7
76 100 98 97 100 100 100 97 100 98 63 26 13 11 27 81 100 100 100 100 97 98 85 88 85 100 100 100 100 100 100 100 100 100 100 100 100 88 98 40 22 19 11 9 6 6 6 6 5 5 5 6 7 10
61 95 91 97 100 100 100 100 77 36 25 27 52 100 100 100 100 100 100 99 85 80 85 86 82 98 100 100 100 100 100 100 94 93 100 100 95 88 28 10 7 7 8 7 7 6 6 5 4 5 7 8 7 8
71 73 95 100 100 100 100 74 41 34 64 100 100 100 100 100 100 100 99 85 81 92 97 100 100 100 100 98 98 100 95 90 91 100 100 95 87 27 16 7 7 7 6 7 7 6 5 4 4 6 10 12 9 8
39 95 100 100 100 100 88 49 43 76 98 100 100 100 100 100 100 100 96 95 99 100 100 100 100 100 100 98 100 100 100 100 99 98 88 30 12 7 7 8 7 7 7 7 6 5 4 4 5 7 12 16 17 11
100 98 100 100 100 100 98 54 47 100 97 100 100 100 100 100 100 100 99 99 100 100 100 100 100 100 100 100 100 100 100 72 44 48 28 10 7 7 8 8 8 8 7 6 5 4 4 4 6 9 16 18 20 20
100 100 100 100 100 100 66 46 87 100 100 100 100 100 100 100 100 100 100 100 100 100 100 100 100 100 100 78 80 100 90 45 30 18 11 10 8 8 6 8 8 8 7 6 5 4 4 5 6 10 17 22 26 27
100 100 100 100 92 66 48 58 100 100 100 100 100 100 100 100 100 100 100 100 100 100 100 100 100 100 100 85 63 93 97 68 36 22 9 10 10 9 7 8 8 8 6 5 5 4 4 6 7 11 17 24 27 30
100 100 100 94 72 48 68 100 100 97 100 100 100 100 100 100 100 100 100 100 100 100 99 99 100 99 98 100 97 85 83 60 38 17 16 14 28 18 9 8 8 7 6 5 5 4 5 6 8 9 15 18 20 23
100 95 79 68 54 52 92 100 100 100 100 100 100 100 100 100 100 100 100 100 100 100 100 100 99 97 100 98 93 85 57 53 39 31 39 57 32 11 8 8 8 6 5 5 4 5 6 7 14 16 15 17 25 46
100 84 71 74 83 100 100 100 100 100 100 100 97 95 100 96 98 100 99 100 100 100 100 100 98 95 96 99 96 91 92 68 72 77 67 40 29 21 11 9 8 6 5 5 5 5 6 12 16 15 16 20 22 34
72 65 65 70 99 100 100 100 100 100 100 100 100 99 100 98 100 99 100 99 99 100 100 98 97 97 96 99 100 86 60 68 68 69 76 57 41 22 11 9 7 6 5 5 5 6 7 14 22 18 15 16 17 25
75 72 75 90 100 100 100 100 100 100 100 98 100 100 100 100 98 94 95 99 97 96 97 97 98 100 97 96 98 100 100 97 91 86 78 83 50 16 11 9 8 6 6 6 6 7 9 11 29 30 23 31 35 26
100 86 92 99 100 100 100 100 99 97 99 100 100 100 100 100 93 87 86 88 89 97 98 99 100 100 94 90 94 97 95 92 92 95 100 85 45 17 12 11 8 8 7 7 7 8 9 11 13 25 37 39 42 48
100 100 99 100 100 100 97 95 94 95 97 100 100 100 99 95 84 84 89 92 98 100 100 100 100 100 95 93 96 100 100 100 100 100 100 97 65 21 14 11 9 9 9 8 9 10 11 12 13 15 18 23 43 52
78 94 100 100 100 96 98 95 99 100 100 100 100 98 92 91 91 94 94 97 99 100 100 100 100 100 100 100 100 100 100 100 100 100 82 75 54 23 16 13 11 10 10 10 11 12 12 13 14 15 16 17 19 32
38 55 80 90 95 97 98 97 99 100 97 95 97 96 96 100 96 97 94 92 94 97 99 99 99 98 99 100 98 100 99 99 98 97 94 70 33 21 19 16 14 13 13 13 14 16 17 18 18 19 20 21 22 24
44 41 37 44 67 80 86 91 92 93 94 96 97 100 98 98 98 97 97 90 91 96 99 100 100 100 98 92 93 95 94 95 95 95 82 59 41 30 28 24 21 18 16 16 17 18 21 22 23 24 26 28 29 30
48 48 52 50 50 58 68 75 82 83 89 90 95 97 99 98 97 97 95 93 96 100 100 97 93 92 95 90 91 96 99 97 98 89 82 79 69 65 53 37 32 28 22 22 22 23 26 26 27 27 29 36 36 38
53 61 66 68 76 77 79 81 87 90 89 88 95 95 98 97 96 96 97 92 97 100 100 93 84 84 86 89 95 100 100 100 100 99 99 99 97 91 84 65 42 38 35 32 31 30 27 26 26 26 28 35 46 52
25 32 53 70 82 84 93 88 90 90 90 94 98 98 100 100 99 100 99 100 100 100 100 96 93 90 97 100 100 100 100 100 100 99 100 99 98 95 94 89 70 50 38 29 26 27 28 30 32 32 32 33 37 48
29 26 26 58 71 84 87 94 94 97 98 98 99 100 100 98 100 100 100 100 100 100 100 100 100 100 100 100 100 99 100 100 100 96 98 99 98 94 84 69 52 37 33 34 35 35 32 29 29 30 32 34 35 36
40 31 24 24 58 76 88 91 96 95 96 97 99 100 100 99 97 98 100 100 100 100 100 100 100 100 100 100 100 99 100 100 100 99 98 96 93 73 51 41 38 35 32 26 21 23 33 42 47 53 59 68 78 74
38 33 28 24 25 57 73 82 88 92 97 98 96 98 98 100 99 100 100 100 100 100 100 100 100 100 100 98 100 98 99 100 99 96 91 80 56 42 38 32 27 22 19 22 41 46 40 38 39 41 47 61 71 71
40 32 31 26 22 30 52 65 75 82 87 90 94 95 98 100 100 100 99 99 99 99 99 100 100 97 97 100 100 100 100 99 91 73 57 44 36 31 26 21 19 25 43 50 48 46 44 45 47 46 44 44 47 49
42 36 34 30 24 24 48 62 67 70 74 84 92 94 95 97 100 100 100 100 96 96 97 100 100 100 100 100 98 94 84 65 47 40 36 30 22 19 20 31 53 56 53 52 58 70 71 61 63 73 79 90 99 100
33 25 23 23 24 36 57 70 71 73 78 81 84 89 93 91 95 93 96 96 96 94 93 94 93 86 77 66 54 45 40 34 27 22 19 20 24 36 56 58 54 56 75 88 85 84 97 100 100 100 100 100 100 100
38 31 33 41 54 70 79 84 92 90 88 88 88 88 85 84 83 83 83 83 81 76 64 56 48 43 40 35 29 24 23 26 34 40 43 45 46 49 52 65 85 94 99 96 96 100 100 100 100 100 100 100 100 100
50 55 62 67 71 71 72 72 72 76 76 76 75 75 72 66 62 56 50 46 42 40 38 36 32 28 29 29 30 40 47 50 48 52 62 80 95 98 97 98 98 100 100 100 100 100 100 100 100 100 100 100 100 100
82 68 57 46 42 39 36 37 40 40 40 39 38 37 36 34 28 26 26 25 24 25 28 35 39 41 45 47 49 62 84 97 100 100 100 100 100 100 100 100 100 100 100 100 100 100 100 100 100 100 100 100 99 96
100 100 99 98 97 99 98 94 88 84 82 84 80 62 49 43 38 35 32 32 34 37 41 51 67 83 90 96 99 100 100 100 100 100 100 100 100 100 100 100 100 100 100 100 100 100 100 100 100 100 99 97 91 74

GFSWCAN_500_rhum_144.txt.gz
RH
89 88 100 100 100 100 100 100 100 100 100 100 100 100 100 100 99 93 99 98 84 72 50 30 35 74 96 99 100 100 97 84 83 50 18 4 6 13 55 99 96 100 100 94 100 100 95 99 50 25 11 9 8 8
63 82 100 98 99 100 100 100 100 100 100 100 100 100 100 100 100 99 100 94 76 54 34 28 97 96 100 99 45 27 27 38 18 12 10 18 70 97 99 100 100 100 100 100 100 100 95 99 85 7 7 7 6 6
40 69 100 92 94 100 100 99 100 100 100 100 100 100 100 100 100 100 98 80 58 43 30 32 80 98 100 100 90 29 9 18 30 40 88 98 97 94 88 94 98 99 100 100 100 100 99 89 11 10 7 6 5 4
100 100 84 67 83 100 100 98 100 100 100 100 100 100 100 99 100 87 79 64 48 34 28 39 86 100 100 100 100 100 83 74 92 100 100 100 100 100 94 94 99 100 100 100 100 96 42 17 10 7 6 5 5 4
70 68 61 70 94 99 100 100 100 100 100 100 100 100 100 98 85 73 63 51 41 32 24 39 87 98 100 100 100 100 100 99 98 98 96 100 95 91 94 91 100 100 100 98 82 49 20 11 7 6 6 5 4 4
41 43 48 59 92 100 99 100 100 100 100 100 100 100 88 80 71 60 52 45 36 29 30 63 96 100 99 100 100 100 100 100 100 100 100 94 91 100 89 93 100 100 100 69 38 12 9 7 7 6 5 5 4 4
40 35 35 52 85 100 100 100 100 100 99 94 87 78 69 60 52 45 40 37 30 55 84 96 100 100 100 100 100 100 100 100 100 100 100 98 97 88 97 94 100 100 67 21 9 7 7 7 7 6 5 5 4 4
43 33 39 66 97 100 100 100 98 88 73 67 75 64 51 47 42 38 48 68 76 100 100 100 99 100 100 100 100 100 100 99 98 98 100 100 100 96 99 100 100 83 15 8 7 7 8 7 6 6 6 5 4 4
37 32 45 93 100 100 99 100 97 88 94 81 49 99 100 85 96 92 100 100 100 100 100 100 100 100 100 100 100 100 98 99 99 100 100 99 97 95 99 97 48 16 16 10 9 8 7 6 6 6 6 5 4 4
27 58 100 96 100 100 100 100 100 74 83 100 100 100 100 100 100 100 100 100 100 100 100 99 100 100 100 100 100 100 100 100 99 100 98 91 96 100 82 43 15 9 14 29 23 8 8 6 6 6 5 5 5 5
86 100 97 100 100 100 100 100 92 99 100 100 100 100 100 100 100 99 98 100 99 99 99 100 100 100 100 100 100 100 100 100 80 79 79 78 54 22 14 12 8 8 22 23 14 9 9 7 6 6 6 5 5 5
100 100 100 100 100 100 99 88 100 100 100 100 100 100 100 100 100 100 100 99 100 100 100 100 100 100 100 99 88 99 100 90 42 31 51 32 16 15 10 9 8 8 9 9 11 11 9 8 10 7 6 6 6 5
100 100 100 100 98 100 71 94 100 100 100 100 100 100 100 98 99 98 98 100 100 100 100 100 100 100 99 100 86 78 100 97 85 56 28 22 22 14 10 12 15 24 26 12 12 14 9 10 8 12 10 7 7 6
100 100 100 100 96 65 78 100 100 100 100 100 100 99 98 98 94 100 100 99 94 98 100 100 100 100 100 100 100 91 100 100 95 93 82 60 37 23 25 34 42 48 41 30 20 16 8 7 9 16 16 9 8 8
100 99 85 66 60 78 93 95 100 100 98 93 99 100 99 100 85 85 88 88 94 100 100 100 99 100 100 100 100 100 100 99 88 60 57 60 63 68 75 68 54 43 50 56 43 15 8 7 7 13 15 10 10 10
87 87 95 93 100 100 99 96 100 100 100 100 94 100 91 89 96 100 99 98 100 100 100 100 100 100 100 100 100 100 100 100 98 99 93 80 72 79 76 78 88 93 76 56 25 20 12 8 8 11 15 12 12 14
100 100 100 100 100 100 100 100 100 100 94 88 86 84 92 100 100 94 98 99 99 100 100 100 100 100 100 100 100 100 100 100 100 100 100 100 100 100 99 100 99 79 69 68 37 28 14 15 11 11 14 15 15 16
100 100 100 100 100 99 100 100 100 95 84 80 83 93 100 98 100 100 99 100 100 100 100 100 100 100 100 100 100 100 100 100 100 100 100 100 100 100 100 100 98 89 75 63 35 32 18 14 14 14 16 20 20 20
100 100 100 100 100 100 100 100 100 95 85 82 85 96 98 100 100 100 99 96 98 100 100 100 99 100 100 100 100 96 96 99 100 100 100 100 100 100 91 68 66 80 90 64 31 23 21 22 27 31 31 28 24 27
100 100 100 100 100 100 100 100 100 94 90 90 90 89 90 95 97 98 99 99 99 100 100 100 100 100 100 100 100 100 100 100 100 100 100 100 100 100 100 100 96 81 70 54 46 50 64 68 61 54 46 41 44 42
94 98 100 99 100 100 97 96 97 99 100 99 99 98 95 97 100 100 100 100 97 95 99 100 100 98 99 100 100 100 100 100 100 100 100 100 98 100 100 100 96 90 89 93 94 93 88 88 80 81 74 57 42 36
67 66 76 88 90 90 97 93 97 100 100 100 100 100 100 100 100 100 100 100 97 94 89 88 95 100 100 100 100 100 100 100 100 100 100 100 100 100 100 100 100 98 100 100 100 100 97 94 87 74 58 46 41 34
70 78 74 67 69 70 82 76 83 93 97 100 100 100 100 100 100 100 100 100 96 92 90 90 95 100 100 100 100 100 100 100 100 100 100 100 100 100 100 100 99 98 98 97 98 98 97 86 67 53 42 35 29 22
26 28 54 69 76 76 66 75 73 84 88 90 92 95 95 99 100 100 100 100 99 95 98 100 99 100 100 100 100 100 100 100 100 100 100 100 100 100 99 98 98 97 97 100 100 97 76 57 44 37 31 24 23 40
25 24 24 22 42 66 75 81 86 84 91 95 95 95 92 93 96 98 100 100 100 100 100 100 100 100 100 100 100 100 100 100 100 100 100 100 100 100 100 100 100 99 100 100 95 71 50 39 34 26 24 40 50 48
35 30 26 23 21 24 58 79 84 87 89 92 94 95 98 100 99 96 100 100 100 100 100 100 100 100 100 100 100 100 100 100 100 98 96 98 100 100 100 100 100 100 93 76 55 42 35 26 23 35 50 49 61 84
36 33 32 26 22 21 20 44 77 89 92 95 99 100 100 100 97 100 100 100 100 100 100 100 100 100 100 100 99 98 96 95 97 99 100 100 100 100 100 100 95 74 56 42 33 24 22 29 43 46 54 79 94 96
30 28 29 26 22 20 19 18 39 76 90 97 96 97 98 100 100 100 100 100 100 100 100 100 100 100 100 100 99 97 96 96 97 99 100 100 100 100 95 65 45 34 25 22 28 37 40 45 62 85 92 97 100 100
40 29 20 20 22 20 17 16 17 40 69 83 94 100 100 100 100 100 100 100 100 100 100 100 100 100 100 100 100 100 100 100 100 100 100 92 67 46 36 28 25 29 37 38 45 67 85 92 94 96 100 100 100 100
55 43 26 20 18 18 18 16 16 22 48 66 74 84 96 100 100 100 100 100 100 100 100 100 100 100 100 100 100 100 95 84 61 51 42 38 31 28 29 37 41 48 70 87 89 93 96 98 100 100 100 100 100 100
80 57 59 70 74 74 72 70 61 55 64 66 68 73 76 80 88 94 94 95 94 94 93 93 92 88 84 77 64 53 46 41 36 31 28 31 37 40 50 76 87 87 90 97 100 100 100 100 99 100 100 100 100 100
100 100 99 90 62 46 44 49 57 62 64 68 76 82 85 83 79 79 76 77 73 71 67 62 56 49 45 41 38 33 28 27 29 34 35 42 69 89 93 95 98 100 100 100 97 96 95 95 97 100 100 100 100 100
94 95 96 100 100 98 96 87 71 45 36 34 35 36 36 35 35 35 34 34 34 33 30 28 24 23 24 25 28 31 33 36 48 76 96 100 100 100 98 98 100 100 100 100 99 100 100 100 100 100 100 100 100 100

GFSWCAN_500_rhum_150.txt.gz
RH
98 64 35 78 100 100 100 100 100 100 100 92 100 100 100 100 100 99 100 78 38 25 13 14 33 60 71 71 72 62 53 44 44 57 77 96 93 90 98 100 100 51 30 63 59 70 73 98 98 90 95 57 51 10
77 79 87 100 100 93 100 100 100 100 94 100 93 95 99 97 99 100 99 79 58 45 20 27 61 81 90 86 77 51 45 76 98 96 97 100 97 100 100 96 63 58 75 83 77 82 96 96 99 95 85 73 27 9
45 57 100 100 100 100 99 96 100 100 92 84 80 97 99 96 98 100 99 76 54 38 36 48 93 85 80 84 68 34 81 100 100 100 100 100 100 100 100 31 56 53 83 77 80 91 95 88 91 87 88 38 10 7
55 96 100 96 100 100 100 100 98 100 96 68 69 99 100 100 96 99 100 100 89 69 59 95 99 93 86 69 35 81 100 100 100 100 100 100 99 62 77 74 92 100 100 92 82 82 83 89 89 94 65 13 7 6
94 99 100 100 100 97 100 100 95 94 73 81 94 100 100 99 99 100 100 100 99 95 91 100 99 95 71 34 40 100 100 98 100 80 56 81 71 98 94 97 100 100 96 88 100 100 100 100 94 93 35 11 6 5
100 100 100 97 90 79 88 100 79 68 78 92 100 100 100 100 100 99 97 96 100 100 100 100 90 64 33 29 72 100 100 99 96 81 69 63 92 100 99 100 100 100 98 96 100 100 100 100 100 81 19 7 6 5
100 100 100 100 99 76 85 84 71 81 83 100 100 100 100 100 99 99 100 100 100 100 100 87 45 34 32 42 93 100 100 100 100 100 86 87 97 100 98 96 100 100 100 100 100 100 100 98 50 13 7 6 5 5
100 100 100 96 88 87 92 87 79 79 96 100 100 100 100 100 100 100 100 100 100 100 99 64 30 32 81 100 100 100 100 100 100 100 100 100 100 100 94 100 100 100 100 98 100 100 99 32 8 7 7 6 6 6
100 85 64 79 83 72 66 65 78 97 100 100 100 100 100 100 100 100 100 99 98 84 69 44 32 85 100 100 100 100 100 100 98 100 100 100 100 99 100 100 100 100 95 99 100 100 59 9 8 7 7 6 6 7
87 58 44 40 37 46 51 60 99 100 100 100 98 100 100 100 99 98 100 94 84 65 43 36 78 100 92 100 100 100 100 100 96 100 100 96 97 100 100 100 100 98 100 100 100 99 26 8 8 8 7 7 9 10
92 70 45 35 35 37 43 99 100 100 100 100 100 100 100 100 100 92 88 80 68 46 39 74 100 100 100 100 100 100 100 100 96 96 98 94 100 99 96 100 100 100 100 98 72 18 11 36 54 43 28 32 16 8
94 52 27 23 30 50 100 99 100 100 100 100 100 100 100 100 100 100 88 65 60 63 87 99 99 100 100 100 100 100 98 98 99 100 98 100 100 97 100 100 100 100 72 15 10 10 16 18 10 11 13 17 28 9
44 27 20 23 31 71 100 100 100 100 100 100 100 100 100 98 100 92 72 72 74 84 100 100 100 100 100 100 100 100 99 100 99 100 99 94 92 90 52 34 23 33 14 9 8 8 9 11 14 18 22 32 15 7
27 29 21 27 78 100 100 100 100 100 100 100 100 100 100 98 88 78 89 99 96 100 100 100 100 100 97 97 100 100 100 100 100 100 90 55 72 36 19 14 12 11 10 10 10 13 24 40 50 54 48 22 11 8
37 72 95 100 100 100 100 100 100 100 100 100 100 100 95 100 100 97 100 100 100 100 100 100 96 98 100 100 100 100 100 100 100 100 98 64 48 31 20 16 14 14 17 21 24 38 45 40 54 69 46 18 16 18
100 100 100 99 100 100 100 100 100 100 99 100 100 99 100 100 100 99 99 100 100 100 100 92 96 99 98 98 100 98 99 100 100 93 97 88 93 97 76 44 33 33 45 68 86 91 95 94 77 61 48 26 35 47
90 98 100 100 100 100 100 100 100 100 100 100 100 100 100 100 99 93 95 90 91 94 93 91 93 100 100 100 100 100 100 100 100 96 96 96 86 72 72 79 82 85 82 75 83 98 98 76 62 67 71 57 57 60
89 88 98 96 100 100 100 100 96 97 100 100 100 100 99 91 90 82 76 82 96 100 100 100 99 99 100 100 100 100 98 98 98 90 91 97 98 96 91 87 89 92 93 96 98 100 99 90 76 80 88 74 57 45
94 83 87 100 94 86 81 78 69 77 92 95 88 77 72 74 73 82 88 93 100 99 98 99 99 100 100 98 96 96 96 96 98 98 98 99 99 100 100 100 100 99 98 100 100 89 75 83 95 92 82 81 87 93
100 100 100 100 100 100 99 78 56 46 49 61 60 65 68 76 80 83 98 100 100 100 100 100 100 100 100 100 99 97 96 97 98 99 100 100 100 100 100 100 100 100 100 100 96 95 98 97 94 92 94 98 98 98
100 100 100 98 99 98 90 86 75 64 60 56 56 59 76 87 98 100 100 100 98 97 98 98 100 98 96 95 98 100 100 100 100 100 100 100 100 100 100 100 100 100 100 99 98 99 99 98 98 100 100 100 99 98
100 100 100 100 99 99 98 96 89 89 83 78 69 80 94 100 100 100 100 100 96 94 93 96 98 99 98 98 99 100 100 100 100 100 100 100 100 100 100 100 100 100 100 100 100 100 100 100 100 100 100 98 99 100
100 100 100 100 100 99 100 100 100 100 100 100 99 100 100 100 100 100 100 99 96 95 96 97 96 95 95 94 94 97 100 100 100 100 100 100 100 100 100 100 100 99 99 99 99 100 100 100 100 99 99 100 100 97
50 76 83 89 96 100 97 100 100 100 100 100 100 100 100 100 100 100 100 100 98 93 90 87 86 86 86 85 85 87 89 97 100 100 100 100 100 100 99 97 96 97 99 100 100 100 100 100 100 100 100 100 87 64
25 26 28 44 65 69 68 70 90 89 92 96 98 99 100 100 100 100 100 100 100 98 96 91 89 89 90 90 88 88 91 94 97 100 100 100 97 96 97 99 100 100 100 100 100 100 98 99 100 100 91 70 44 26
23 23 23 24 23 26 38 56 58 57 61 67 77 86 90 94 95 94 99 98 96 96 97 97 98 99 98 97 96 97 97 95 99 100 100 100 100 100 100 100 100 100 100 100 100 100 100 100 93 68 42 27 27 32
20 20 20 21 21 22 22 22 26 42 52 58 63 63 64 69 77 83 88 83 82 84 87 90 91 91 93 96 98 99 100 100 100 100 100 100 100 100 100 100 100 100 99 99 100 100 90 62 39 28 29 34 44 68
30 23 18 16 16 18 19 19 19 20 21 32 49 58 61 63 72 77 79 82 86 86 87 89 91 94 98 100 100 100 100 100 100 100 100 100 100 100 100 100 100 99 99 96 76 49 32 27 30 37 58 82 90 90
57 44 26 18 15 13 14 16 16 17 17 18 19 26 53 73 77 78 79 83 88 90 91 94 97 100 100 100 100 100 100 100 100 100 100 100 100 99 99 98 95 79 59 42 31 28 32 40 73 90 91 94 97 100
63 55 57 44 24 17 15 14 16 17 16 16 16 17 25 52 73 82 84 86 90 93 96 98 98 99 99 99 100 100 100 100 100 100 98 98 96 88 82 68 48 35 29 29 32 41 70 90 96 100 100 100 100 100
92 91 84 64 56 57 51 38 24 18 16 15 15 16 19 33 57 72 79 85 88 90 92 96 99 100 100 100 100 100 100 100 98 94 90 86 70 51 39 33 30 31 35 54 85 98 100 100 100 100 100 100 100 100
88 89 93 97 96 91 80 62 52 58 67 62 56 58 55 54 61 64 72 71 77 81 86 87 88 91 87 87 87 88 87 79 68 52 40 33 28 28 31 35 45 77 98 100 100 99 99 100 100 100 99 98 99 100
100 100 100 97 95 96 99 99 97 96 76 52 48 54 57 67 76 75 74 75 73 76 77 75 73 70 65 57 48 40 32 28 25 26 28 34 41 60 88 100 100 98 96 97 99 99 98 97 99 100 100 100 100 100

GFSWCAN_500_rhum_156.txt.gz
RH
100 100 96 72 43 23 16 10 12 16 19 59 100 100 100 100 100 100 100 100 100 100 94 86 52 28 23 21 18 26 16 29 29 25 32 51 43 58 58 75 91 96 94 88 83 73 31 47 12 29 60 81 96 100
100 83 100 94 58 25 36 11 13 19 38 100 100 100 100 100 100 100 96 92 100 100 97 87 73 33 25 22 16 15 25 23 29 44 52 67 97 96 100 100 100 98 100 98 83 61 89 81 98 87 74 58 100 100
88 66 83 68 37 28 13 11 19 81 100 100 100 100 100 100 100 100 94 88 96 90 100 90 77 88 57 21 16 12 13 15 38 59 68 66 65 71 100 100 100 99 88 65 78 57 86 96 84 81 61 94 100 100
100 100 88 100 100 90 13 19 53 94 62 100 100 100 100 100 91 80 85 82 92 98 98 91 91 90 50 26 18 13 18 32 61 73 74 67 85 94 100 100 100 100 100 100 88 52 71 80 83 95 100 100 95 100
100 100 100 100 35 20 92 84 86 100 79 100 100 100 100 98 84 76 85 97 99 100 96 100 94 99 87 58 37 18 35 71 82 84 79 68 100 92 100 99 94 100 100 100 100 100 99 100 100 100 100 100 98 100
68 57 26 16 89 100 100 100 100 100 100 100 100 96 88 87 72 56 52 79 96 100 100 100 96 90 87 73 29 30 67 80 88 86 61 72 100 100 89 90 100 100 93 65 70 88 96 100 100 98 100 96 100 99
61 59 46 40 50 64 96 100 100 100 100 100 100 100 93 73 49 38 55 100 100 100 100 100 99 94 92 81 58 62 80 93 93 60 64 92 100 100 80 64 100 96 92 100 98 99 100 100 96 95 100 100 100 96
100 100 100 100 100 100 100 100 100 100 100 98 88 71 57 45 37 35 83 100 100 100 95 90 98 100 98 85 89 100 100 97 57 52 85 97 100 98 38 68 100 98 98 100 98 97 100 100 99 99 100 100 76 23
100 100 100 100 96 100 100 100 100 98 86 72 58 45 40 38 41 78 99 100 100 100 90 95 100 100 100 88 96 100 86 41 36 55 90 100 99 83 99 100 93 90 93 97 100 100 100 100 100 100 100 82 10 8
100 99 99 96 92 95 90 76 62 56 55 52 45 38 43 79 100 100 100 93 94 88 84 100 100 100 98 100 99 100 100 100 79 83 100 93 85 100 100 94 99 95 100 100 99 97 100 100 100 100 100 45 10 8
94 81 67 46 32 36 45 48 45 41 40 39 45 74 98 100 100 100 98 92 83 77 96 100 98 100 100 84 100 100 100 100 100 99 98 85 89 94 92 94 92 100 100 100 100 100 99 100 100 100 92 25 8 9
78 69 56 42 36 52 52 52 49 52 65 76 99 100 100 100 100 96 89 85 83 97 100 100 99 66 77 84 100 100 100 100 95 100 95 92 90 82 82 90 97 100 99 100 98 99 100 100 100 100 52 11 20 37
57 56 46 27 34 38 44 92 84 95 99 100 100 99 100 98 90 84 87 86 100 100 100 96 80 48 54 86 100 100 100 93 93 83 89 97 95 86 89 93 98 99 100 100 99 100 100 100 78 30 12 12 22 12
37 27 22 22 23 31 94 99 93 100 100 100 100 99 98 98 91 93 100 100 100 100 100 97 66 55 89 100 100 98 98 90 83 78 90 100 89 98 97 100 98 99 100 100 100 100 46 16 14 10 10 9 12 27
32 29 22 19 17 26 82 95 100 100 100 100 100 100 100 100 97 100 100 100 100 100 100 100 100 100 100 99 99 98 91 82 78 83 100 96 99 98 100 96 62 23 18 23 47 25 13 12 11 11 12 19 35 52
17 19 20 18 16 14 72 88 100 100 100 100 100 100 99 100 100 100 100 98 100 100 100 100 100 100 100 99 91 87 83 79 88 97 100 99 100 99 92 86 60 52 31 15 14 14 15 17 19 23 38 74 87 87
20 19 18 14 12 36 88 94 94 100 100 100 100 100 100 99 100 85 100 100 100 100 100 100 100 94 98 98 97 99 100 100 100 100 100 100 100 100 100 98 93 58 56 51 43 38 44 71 89 90 84 89 89 90
28 77 100 84 85 88 94 100 100 100 100 100 100 96 100 100 100 100 100 100 100 99 100 98 100 96 91 96 100 97 100 100 100 100 100 100 100 100 100 98 94 95 95 93 93 94 96 97 91 91 95 93 87 77
100 100 98 88 85 90 100 100 100 100 100 97 84 93 94 100 100 96 93 94 92 87 88 91 90 94 100 100 100 100 100 100 100 100 100 100 100 100 100 100 100 100 100 100 100 100 100 100 100 100 99 93 90 86
98 94 86 78 80 90 99 96 90 78 81 100 100 99 99 89 86 93 78 71 70 77 82 87 100 100 100 100 100 100 100 100 100 100 100 100 100 100 100 100 100 100 100 100 100 100 100 100 100 98 95 91 88 87
58 69 76 82 84 93 87 76 68 68 67 72 75 95 100 94 72 62 61 60 62 64 69 94 100 100 100 100 100 100 100 100 100 100 100 100 100 100 100 100 100 100 100 99 100 100 99 96 92 90 89 89 90 90
92 89 86 84 87 85 76 74 77 67 56 66 86 88 79 63 58 55 48 41 46 61 76 98 100 100 100 100 100 100 100 100 100 100 100 100 100 100 100 100 99 98 97 96 94 92 90 89 89 90 93 95 95 98
100 100 99 99 90 78 81 73 70 56 52 52 49 46 43 40 38 39 34 39 48 54 79 96 99 100 99 98 100 100 99 99 98 98 98 97 96 97 97 96 95 95 95 95 94 94 94 96 98 98 97 96 95 95
100 100 99 97 97 98 92 82 73 64 51 46 37 34 34 35 35 29 27 40 52 57 87 93 98 99 99 100 100 100 99 95 92 90 90 89 91 92 94 95 96 96 96 96 97 98 98 98 96 93 92 92 92 95
36 42 70 91 100 100 99 99 98 91 86 80 74 70 73 76 66 62 64 77 80 79 95 97 100 100 100 100 100 98 92 89 86 84 84 82 80 81 85 91 95 98 99 99 99 100 100 98 96 92 91 91 91 97
16 16 20 23 25 31 40 71 91 98 98 98 97 100 100 99 96 92 97 100 100 100 100 100 100 100 100 100 100 97 90 87 86 85 86 89 90 91 95 98 100 100 100 100 100 100 98 95 93 92 94 95 96 97
31 27 21 17 16 16 17 20 23 29 41 65 77 80 88 91 89 91 100 100 100 100 100 100 100 100 100 100 100 98 96 94 92 93 91 89 90 93 96 97 98 98 97 98 97 95 92 93 96 98 99 98 88 60
60 51 45 39 28 21 16 14 14 15 17 21 23 28 43 50 62 73 69 75 87 94 98 100 100 100 100 100 100 97 94 90 88 88 88 90 94 96 95 93 94 95 94 94 95 96 98 99 100 100 89 62 39 29
54 65 71 72 58 49 34 21 15 13 13 13 15 17 19 20 20 28 44 56 62 66 71 75 82 86 89 91 91 92 91 93 93 94 94 98 98 97 97 97 98 98 98 98 99 100 100 100 90 65 43 32 30 44
66 60 67 77 81 86 76 57 40 23 16 14 13 14 16 18 18 18 18 20 23 37 54 65 68 72 79 83 89 93 96 98 99 99 98 100 100 98 100 100 100 100 100 100 100 100 88 62 43 32 31 42 84 100
20 42 75 90 94 90 90 94 88 71 53 36 24 18 15 16 17 16 17 16 17 18 23 46 70 79 82 85 92 97 100 100 100 100 100 100 100 100 100 100 100 100 100 95 77 55 38 30 31 47 89 100 100 99
15 16 18 35 69 93 100 100 99 97 98 92 72 57 53 46 30 22 21 17 16 16 18 33 66 89 100 100 96 99 100 100 100 100 100 100 100 100 100 94 84 68 52 37 29 30 35 70 98 100 100 98 96 95
17 18 18 18 18 20 45 77 91 99 100 98 97 98 93 76 60 63 63 54 46 43 40 53 75 85 88 98 100 100 100 100 99 97 90 83 75 67 57 46 35 29 32 46 81 98 100 100 100 98 97 93 90 80

GFSWCAN_500_rhum_159.txt.gz
RH
96 93 89 87 99 81 44 14 10 14 16 16 20 28 46 98 100 100 100 100 100 100 91 63 69 88 97 81 39 32 32 30 25 19 13 11 9 16 27 50 59 59 75 98 100 83 52 64 54 56 81 63 54 75
100 100 100 100 100 91 76 60 24 10 14 15 17 22 36 90 100 100 100 100 100 94 75 65 70 99 97 54 38 30 43 64 73 37 20 18 21 41 75 100 100 100 100 100 99 93 67 68 92 100 100 98 95 63
96 87 78 85 100 100 72 32 47 11 12 14 16 21 39 91 99 100 100 100 100 90 79 60 67 99 92 77 37 32 37 43 52 39 31 26 36 58 72 93 99 100 100 86 94 78 72 84 88 96 99 69 72 78
64 84 98 69 73 97 57 37 36 10 11 14 17 24 28 95 100 100 100 100 100 85 64 66 81 90 99 91 72 33 26 21 19 18 16 23 52 66 68 68 73 100 100 97 91 100 88 92 92 75 95 97 97 92
100 100 91 55 49 37 28 22 13 10 13 18 21 80 100 100 100 100 100 100 93 76 60 60 68 88 86 95 91 83 45 21 15 13 17 33 66 76 76 65 70 97 90 94 96 100 100 91 81 82 99 99 96 93
99 100 100 100 100 78 13 11 12 18 21 63 100 100 100 100 100 100 96 72 68 62 54 56 76 80 81 91 99 84 36 20 18 14 30 60 90 91 74 71 83 97 100 96 100 100 100 100 94 96 100 100 92 98
92 99 100 100 70 17 35 83 95 100 100 100 100 100 100 100 100 92 67 62 53 53 73 83 76 74 80 87 96 93 72 52 42 27 48 76 93 76 60 60 100 100 100 88 92 82 79 88 93 93 97 92 95 100
24 71 98 100 67 68 95 100 100 100 100 100 100 100 100 100 97 66 46 38 35 58 83 80 88 99 100 96 90 87 86 61 41 47 55 86 77 62 62 100 99 92 83 79 80 80 88 98 96 87 99 98 95 98
79 79 99 100 100 100 100 100 100 100 100 99 87 98 100 92 61 47 35 33 54 71 83 95 100 99 100 100 100 94 90 78 76 85 87 70 56 63 98 98 100 90 74 73 86 99 95 92 93 96 100 96 97 98
100 100 100 100 100 100 99 100 100 100 100 100 100 80 51 44 37 32 31 45 64 71 76 97 100 100 100 100 100 100 90 96 87 81 53 40 43 95 95 99 98 99 100 100 96 94 97 96 97 100 100 100 98 99
100 100 100 100 100 100 99 96 91 89 82 62 44 40 36 33 41 54 66 72 81 71 74 98 93 100 100 100 100 100 100 99 86 96 92 84 84 100 93 83 75 85 92 100 100 100 100 100 100 100 99 96 100 99
39 38 46 47 49 54 58 50 46 45 42 41 54 42 31 43 62 75 77 75 68 73 92 100 92 100 100 100 100 100 100 100 100 95 100 100 100 94 82 82 87 88 99 100 100 100 100 100 100 100 100 100 100 68
43 42 39 38 41 44 39 37 38 34 33 31 31 48 66 68 73 71 64 73 91 99 100 96 96 100 100 100 94 100 100 100 100 91 92 100 100 88 82 80 87 94 100 100 100 100 100 100 100 100 100 99 43 12
27 20 21 28 39 44 64 54 44 52 65 70 80 91 86 93 72 76 89 100 100 100 100 100 100 100 95 96 100 100 100 100 91 81 94 100 89 87 91 97 99 100 100 100 100 100 100 100 99 59 34 16 12 11
28 25 22 20 16 22 74 86 87 95 100 100 100 100 90 79 91 99 100 100 100 100 100 100 100 100 99 94 98 95 93 86 81 95 100 95 92 91 95 95 96 98 79 58 68 98 97 62 17 13 12 12 13 16
26 25 22 20 17 15 42 91 100 100 100 100 92 91 87 98 100 100 100 100 99 100 100 100 100 100 100 100 100 100 99 94 100 100 96 94 92 93 95 99 100 99 85 40 19 17 21 16 14 15 18 20 41 76
15 15 16 20 19 17 34 90 100 100 97 100 97 95 98 98 100 98 99 99 99 99 100 100 100 100 100 100 100 100 100 100 94 94 93 90 96 95 98 99 100 100 95 73 47 23 19 22 27 46 81 94 92 93
18 16 15 13 12 14 61 96 100 99 100 100 91 100 100 100 100 100 100 100 100 100 100 100 100 100 98 99 100 93 91 97 100 100 95 95 94 98 100 99 98 100 100 100 96 97 98 98 98 99 100 98 99 100
36 55 53 68 81 81 94 100 100 100 96 100 99 92 100 100 100 100 100 100 100 100 100 100 100 100 100 96 97 92 89 91 94 97 100 100 100 100 100 100 100 100 100 100 100 100 100 100 100 100 100 100 100 100
99 100 100 86 75 86 96 88 85 99 99 96 93 100 100 100 100 100 100 100 100 95 92 91 87 84 90 92 95 95 93 95 96 97 99 100 100 100 100 100 100 100 100 100 100 100 100 100 100 100 100 100 100 100
74 71 70 72 73 80 81 78 78 86 84 94 100 100 99 100 92 93 95 82 73 73 71 67 59 64 86 92 93 97 98 98 99 100 100 100 100 100 100 100 100 100 100 100 100 100 100 100 100 100 100 100 100 99
60 68 74 74 70 70 73 72 70 74 71 70 66 72 85 98 100 93 76 62 62 59 48 43 42 59 85 95 99 100 100 100 99 100 100 100 100 100 100 100 100 100 100 100 100 100 100 100 100 100 100 100 100 99
87 85 83 84 83 77 72 66 64 61 58 57 52 49 61 77 84 78 61 54 48 41 35 40 44 48 72 91 97 100 100 99 100 100 100 100 100 100 100 100 100 100 100 100 100 100 100 100 100 100 100 100 100 97
90 90 87 87 85 84 84 80 65 57 53 54 53 45 48 50 50 42 32 32 36 32 28 30 37 44 66 89 98 99 98 99 100 100 100 100 100 98 97 98 100 99 100 100 100 100 100 100 100 100 100 100 99 96
19 22 39 51 74 88 94 92 90 84 80 68 60 52 44 43 37 30 25 29 53 43 36 40 48 55 75 93 100 100 100 100 100 100 99 95 90 88 91 94 94 95 96 98 100 100 100 99 100 99 100 100 99 99
21 19 17 17 16 17 20 29 46 71 90 95 91 86 85 69 51 48 65 91 87 75 80 81 88 90 98 100 100 100 100 100 100 100 100 97 94 93 97 100 100 100 100 99 97 98 99 97 98 98 98 95 100 100
56 55 50 41 32 26 20 17 14 15 18 24 36 58 78 83 84 89 98 95 96 98 97 98 100 100 100 100 100 100 100 100 100 100 100 100 100 100 100 100 100 99 100 100 98 99 98 98 98 98 98 97 99 100
48 50 55 63 65 65 58 43 32 23 15 13 12 15 21 26 32 48 61 71 84 90 96 100 100 100 100 100 100 100 100 100 100 100 100 100 99 98 94 94 95 95 99 100 99 98 98 99 99 100 99 99 100 96
53 61 66 69 62 62 77 79 78 62 42 27 18 13 12 14 16 19 21 23 32 51 63 70 72 77 88 99 100 100 100 100 100 100 100 100 100 100 100 100 98 99 100 100 100 100 99 100 100 100 100 96 78 50
13 13 15 20 39 64 87 86 89 92 86 71 52 32 19 14 14 14 16 18 20 20 20 24 34 51 66 75 82 86 89 90 92 95 100 100 100 100 100 100 100 100 100 100 100 100 100 100 100 95 75 47 32 31
10 12 14 16 18 24 31 58 85 98 100 98 92 83 66 43 28 17 15 16 17 18 18 18 18 18 23 42 72 87 90 89 90 99 100 100 100 100 100 100 100 100 100 100 100 100 96 83 60 38 30 33 62 96
10 10 10 10 15 18 23 24 24 28 56 93 100 98 97 90 71 64 63 36 25 18 17 17 17 17 17 28 53 80 99 99 99 100 100 100 100 100 100 100 100 100 98 91 76 57 38 31 33 57 96 100 100 100
12 10 10 11 12 13 16 19 21 22 24 26 52 91 96 95 98 100 100 72 55 55 56 49 44 34 30 35 55 88 99 100 100 100 100 100 100 100 96 91 81 69 52 39 37 49 80 100 100 100 100 100 100 100

GFSWCAN_500_rhum_162.txt.gz
RH
62 87 95 95 95 97 84 42 12 10 16 20 24 28 29 30 58 67 100 100 100 98 100 97 70 59 53 66 96 86 69 81 53 28 28 26 44 69 45 16 37 42 41 54 76 84 72 93 94 79 65 63 68 94
80 92 100 100 100 100 100 100 88 27 9 16 19 23 26 25 59 89 100 100 100 100 100 92 69 61 42 70 94 97 74 43 56 50 42 40 34 20 68 57 78 100 100 100 100 94 98 84 81 88 87 94 100 99
78 86 96 96 95 97 98 100 75 66 20 12 16 19 23 22 37 92 100 100 100 100 100 99 78 60 47 44 84 84 82 80 61 92 84 65 58 37 35 70 100 100 100 95 94 99 88 94 92 83 90 97 86 80
47 70 97 88 94 100 99 100 99 88 29 11 16 17 19 21 38 97 97 100 100 100 100 100 83 62 55 49 73 100 81 47 47 92 75 49 52 44 46 62 78 100 100 100 100 100 92 97 98 93 100 92 79 86
38 53 65 82 100 94 97 100 97 89 52 11 15 16 18 20 79 100 100 100 100 100 97 96 86 54 38 38 70 92 84 52 39 29 24 20 16 16 32 56 65 95 97 100 100 99 100 95 97 100 99 94 69 81
96 100 100 100 89 73 81 92 58 69 23 12 15 17 18 25 96 100 100 100 100 100 100 79 58 42 33 33 59 88 98 92 55 50 40 30 14 18 33 53 74 98 94 97 95 92 100 100 95 100 100 100 89 85
100 100 97 66 25 20 23 26 23 12 11 14 16 19 24 77 92 90 98 98 100 97 62 47 46 36 37 34 58 69 76 90 92 91 47 20 19 37 44 56 89 100 91 81 76 100 97 89 83 86 99 90 95 88
93 100 100 97 29 13 11 12 12 14 18 27 50 81 100 100 100 100 100 100 95 59 43 37 38 53 54 54 73 80 79 86 81 71 51 42 37 42 39 81 95 90 96 91 76 76 96 82 82 81 96 100 100 89
85 100 100 100 100 73 24 39 83 93 96 99 100 100 100 100 100 100 99 72 46 38 29 30 52 73 79 84 98 98 91 84 76 72 71 57 58 54 81 88 81 85 78 99 87 66 86 93 97 89 98 100 100 98
89 91 100 100 100 100 100 100 100 100 100 100 100 100 100 100 96 80 58 44 35 26 23 49 74 93 94 97 100 100 100 98 77 74 81 73 72 70 66 65 78 88 98 100 100 98 82 88 92 98 98 100 100 100
100 98 90 86 100 100 100 100 100 100 100 100 96 88 86 80 68 50 38 30 28 30 62 93 93 93 100 100 91 100 100 100 89 100 97 86 78 60 48 54 76 80 87 86 88 95 100 100 100 100 100 100 100 97
97 98 97 100 100 100 100 100 100 100 99 100 86 63 45 33 27 26 26 25 39 75 83 93 90 90 97 100 99 100 100 98 96 95 96 91 100 98 96 81 84 78 78 79 84 94 99 100 100 100 100 100 99 99
28 30 34 38 45 48 55 57 64 68 53 39 33 31 25 25 25 27 44 69 79 85 89 88 77 84 96 100 98 100 99 100 100 100 99 98 100 95 90 86 82 83 89 91 96 99 99 100 100 100 100 100 100 100
26 31 30 31 34 29 28 32 39 38 34 33 31 28 25 45 56 65 71 78 81 100 98 95 98 100 100 100 100 100 100 100 99 96 100 98 89 93 90 87 89 93 99 100 100 100 100 100 100 100 100 100 91 60
22 22 22 21 42 59 55 43 42 44 55 52 51 64 63 76 70 71 78 93 100 95 100 100 100 100 100 99 100 100 100 83 79 89 95 93 92 92 85 88 92 97 98 99 88 80 96 100 100 100 83 33 27 20
24 25 20 16 16 21 78 93 91 94 91 86 76 83 80 79 78 84 93 100 97 100 96 100 100 100 99 99 99 96 87 75 92 93 95 97 99 98 90 93 92 99 100 100 95 69 35 60 97 75 36 20 17 19
21 23 19 17 13 14 21 79 93 84 82 87 91 92 86 84 100 98 100 95 87 99 100 100 96 98 99 100 100 100 99 90 90 90 95 96 93 87 90 93 91 100 100 100 100 100 93 40 23 22 25 27 58 89
16 15 14 14 11 11 19 75 82 88 90 93 90 99 95 92 100 100 98 95 87 95 92 100 100 100 100 100 96 83 98 100 100 98 93 93 96 100 100 99 100 100 100 100 100 100 99 98 95 94 98 100 100 100
26 54 31 14 13 41 81 85 95 91 87 94 93 98 99 100 100 100 99 99 100 100 100 89 83 94 100 100 100 100 99 93 90 90 92 98 100 100 100 100 100 100 100 100 100 100 100 100 100 100 100 100 100 100
89 99 98 91 96 92 84 89 94 95 92 92 98 98 99 100 100 100 100 100 99 100 98 90 100 100 95 92 90 84 77 81 85 88 89 95 100 100 100 100 100 100 100 100 100 100 100 100 100 100 100 100 100 100
82 89 78 74 78 89 95 89 84 93 95 87 89 94 100 100 100 100 100 100 100 100 100 99 87 63 56 60 70 75 80 85 88 90 95 97 100 100 100 100 100 100 100 100 100 100 100 100 100 100 100 100 100 100
70 57 59 68 67 73 81 83 77 81 85 84 86 98 100 100 100 100 100 100 100 100 97 84 56 44 39 40 50 70 83 90 94 95 98 99 100 100 100 100 100 100 98 100 100 100 100 100 100 100 100 100 100 100
82 81 82 80 75 68 65 65 71 69 70 77 69 62 64 75 81 81 79 98 97 86 67 55 39 31 35 38 34 39 66 84 90 96 98 100 100 100 100 100 100 100 100 100 100 100 100 100 100 100 100 100 100 100
24 46 67 82 88 88 85 76 69 62 61 58 60 58 51 49 49 50 58 73 71 62 51 42 34 28 26 25 29 36 46 77 92 95 98 100 100 100 100 100 100 100 100 100 100 98 95 94 95 98 99 100 100 98
19 19 15 17 17 25 40 64 81 88 85 72 60 52 47 44 43 40 40 47 47 42 35 30 27 24 24 28 34 43 59 77 97 100 99 100 100 99 97 98 100 100 100 99 99 99 99 100 100 100 100 100 100 99
45 52 51 49 42 30 23 17 17 17 20 44 73 82 85 76 65 54 55 54 41 38 36 33 32 35 47 55 65 76 81 98 100 100 100 100 100 100 100 100 100 100 100 100 99 99 99 100 100 100 100 100 100 100
35 44 46 44 49 54 58 62 60 47 29 20 16 15 19 40 62 76 91 94 93 91 87 83 80 90 99 100 100 100 100 100 100 100 100 100 100 100 100 100 99 100 100 100 100 98 98 99 100 100 100 100 100 100
11 16 22 30 41 48 53 56 56 68 81 74 58 36 17 14 13 16 23 36 62 80 89 94 100 100 100 100 100 100 100 100 100 100 100 100 100 100 100 100 100 100 100 100 100 100 100 100 100 100 100 100 100 100
14 12 11 12 13 14 16 18 34 54 76 88 93 93 74 51 28 16 13 14 20 23 30 45 63 77 88 98 100 100 100 100 100 100 100 100 100 100 100 100 100 100 100 100 100 100 100 100 100 100 100 100 100 100
27 18 13 11 12 14 15 16 18 22 31 47 75 92 100 100 92 60 29 18 15 15 19 22 22 22 28 46 68 81 88 95 99 100 100 100 100 100 100 100 100 100 100 100 100 100 100 100 100 100 100 100 93 75
50 34 20 14 12 12 12 13 16 19 23 25 27 27 65 92 100 100 97 71 35 20 18 18 18 19 20 20 19 20 26 47 70 89 100 100 100 100 100 100 100 100 100 100 100 100 100 100 99 93 81 59 40 38
79 63 45 26 17 12 12 13 14 16 18 24 29 27 24 23 48 98 100 98 85 66 47 32 23 20 21 21 20 18 18 20 32 66 96 100 100 100 100 100 100 100 100 100 100 97 92 84 69 51 42 60 93 100
98 90 82 68 38 16 12 8 10 12 18 20 21 23 26 26 25 43 97 99 99 100 100 90 74 64 54 43 32 26 23 30 55 88 100 100 100 100 100 100 100 100 100 95 86 72 61 63 78 95 100 100 100 100

GFSWCAN_500_rhum_165.txt.gz
RH
21 22 23 23 22 22 25 18 14 14 17 22 30 38 46 56 57 55 75 88 98 100 100 100 97 100 82 70 68 87 99 95 100 99 93 90 65 42 84 70 96 88 32 21 32 37 45 60 70 94 78 89 96 80
65 50 36 62 66 78 96 97 86 79 43 12 16 24 31 44 48 44 72 68 99 100 100 100 100 98 98 63 56 78 92 100 100 86 65 45 31 28 35 67 93 38 42 95 100 100 100 99 81 85 84 92 100 100
100 97 59 74 82 85 86 93 100 100 100 87 15 16 23 31 40 37 58 89 100 100 100 99 96 100 89 54 50 51 77 100 100 82 100 85 54 55 70 90 83 92 97 100 98 100 100 89 87 80 89 90 95 100
100 100 100 69 74 88 95 100 100 100 91 92 40 14 19 26 32 31 55 97 99 100 100 100 94 100 85 62 53 48 50 87 99 100 99 98 100 100 98 85 59 100 99 100 100 100 97 97 99 96 97 84 100 100
69 92 100 60 59 80 87 100 100 100 99 100 46 13 17 23 26 30 61 99 100 100 100 100 99 100 97 74 60 42 42 65 92 81 67 80 100 74 45 36 34 74 93 89 95 96 94 95 98 86 95 100 88 90
76 42 29 35 50 73 90 100 100 100 100 100 39 14 18 22 25 47 100 100 100 100 100 100 79 97 100 86 52 35 28 37 65 93 67 41 36 28 22 17 18 57 78 71 77 85 90 100 100 99 100 100 87 94
69 90 98 100 98 99 100 97 100 100 100 88 19 16 20 21 22 64 89 100 100 100 100 100 99 83 67 51 37 32 30 47 73 73 80 66 46 47 52 20 34 78 77 75 70 77 85 96 95 100 90 86 89 88
100 28 38 61 49 44 73 70 94 90 51 17 17 20 20 20 34 88 100 100 100 100 100 100 78 62 45 35 32 40 38 45 50 59 72 73 72 71 39 59 78 88 74 65 77 70 74 89 89 100 96 80 78 86
100 20 12 12 13 19 26 29 26 18 17 18 18 19 20 64 96 98 100 100 100 100 91 65 43 40 32 33 43 57 59 63 66 70 68 69 68 65 62 70 82 78 72 65 73 78 83 74 65 72 84 88 82 78
100 90 99 100 61 16 16 16 17 19 51 85 92 100 100 100 100 100 100 100 99 85 49 39 30 26 38 58 70 83 93 91 80 80 71 62 60 76 68 61 73 91 77 99 100 98 94 100 90 75 79 92 97 98
100 100 100 100 100 100 97 100 100 100 98 96 98 100 100 100 100 100 100 94 66 49 37 30 26 53 76 84 98 98 86 88 86 96 76 69 81 98 77 66 59 67 68 79 78 83 96 99 100 100 100 100 100 100
99 100 100 100 100 100 100 100 99 74 72 98 88 98 99 96 95 86 69 57 41 34 31 37 61 80 83 96 94 94 96 98 96 100 98 89 100 95 87 91 94 76 75 83 84 81 82 87 99 100 100 100 100 100
47 71 87 93 100 100 100 99 98 100 100 100 100 91 81 70 60 52 43 31 30 44 67 78 82 78 78 91 96 100 92 91 100 100 100 100 100 100 100 100 100 95 98 96 96 97 94 100 100 100 100 100 100 100
20 30 43 59 59 73 98 99 100 99 100 99 78 48 43 34 32 30 30 28 33 47 79 81 73 89 96 100 100 97 91 86 100 100 100 100 100 100 100 94 90 87 86 91 95 98 100 100 100 99 100 100 100 100
19 25 31 48 44 41 38 41 41 36 36 33 30 28 24 30 40 47 48 43 59 73 81 99 99 92 100 100 100 94 98 89 87 98 100 100 100 93 84 84 88 85 87 93 100 100 98 84 92 100 100 100 100 100
22 18 16 19 25 46 56 48 38 30 31 29 28 33 41 54 65 71 69 71 87 100 98 100 100 100 97 96 100 100 96 87 85 98 97 88 87 82 80 80 82 85 85 93 100 100 99 89 75 87 100 92 57 30
24 26 22 18 15 14 31 80 78 76 64 64 68 66 74 70 72 70 66 84 93 84 100 100 100 100 100 100 99 98 100 100 97 84 84 88 84 86 89 88 92 92 91 96 100 100 100 100 89 74 56 40 36 28
19 17 17 18 17 16 14 61 72 69 71 75 78 79 83 77 78 95 100 93 71 83 100 100 100 100 100 100 94 90 84 91 94 88 87 86 87 91 99 100 100 100 100 100 100 100 100 100 100 100 93 79 78 90
67 46 16 12 11 11 42 73 71 81 92 99 100 98 100 95 98 100 98 76 65 82 99 100 99 92 68 77 93 100 94 89 97 98 90 83 85 92 99 99 100 100 100 100 100 100 100 100 100 100 100 100 100 100
95 95 72 51 42 70 89 88 85 88 96 100 100 100 100 100 100 100 99 98 92 77 79 91 98 100 99 97 99 100 100 97 90 77 69 73 81 87 97 99 100 100 100 100 100 100 100 100 100 100 100 100 100 100
57 65 70 73 78 81 95 98 97 100 100 100 100 99 100 100 100 100 100 100 99 97 100 100 100 100 95 80 68 65 66 66 62 67 73 76 80 87 95 100 100 100 100 100 100 100 100 100 100 100 100 100 100 100
73 56 48 49 54 71 84 94 90 89 87 96 99 100 100 100 100 100 100 100 100 100 100 100 96 96 89 60 47 44 45 50 58 68 78 83 87 92 98 100 100 100 100 100 99 100 100 100 100 100 100 100 100 100
37 63 75 76 73 63 56 62 70 72 74 75 72 80 90 98 100 100 100 100 100 99 100 100 100 99 73 43 36 36 33 30 29 35 54 75 85 92 99 100 100 100 100 100 100 100 100 100 100 100 100 100 100 100
21 14 14 20 40 63 72 73 69 64 54 55 58 61 64 64 67 74 82 93 98 93 90 92 91 84 65 52 38 28 25 23 24 26 36 57 79 92 99 100 100 100 100 100 100 100 100 100 100 100 100 100 99 97
32 36 38 37 31 22 17 17 19 35 60 72 72 66 57 50 49 50 50 55 53 50 61 68 73 70 55 42 34 29 25 23 24 27 37 67 85 91 99 100 100 100 100 100 100 100 100 100 100 100 100 100 98 95
14 17 23 27 34 41 42 46 47 43 33 22 16 19 34 57 67 60 56 51 44 41 40 40 42 46 48 42 36 31 27 26 26 38 55 82 100 100 100 100 100 100 100 100 100 100 100 100 100 100 100 100 94 90
18 14 13 14 12 13 17 26 31 36 40 46 52 56 46 24 16 16 27 51 75 78 68 58 49 42 36 36 34 37 46 54 70 90 97 100 100 100 100 100 100 100 100 100 100 100 100 100 100 100 99 97 96 97
49 36 24 17 13 12 11 12 12 14 15 18 26 40 50 67 72 52 29 16 14 20 36 60 81 92 99 99 100 100 100 100 100 100 100 100 100 100 100 100 100 100 100 100 100 100 100 100 100 100 100 100 100 97
88 77 59 44 35 24 15 13 12 13 15 17 18 20 31 60 83 82 84 66 36 20 15 17 23 31 55 84 98 100 100 100 100 100 100 100 100 100 100 100 100 100 100 100 100 100 100 100 100 98 97 98 99 100
93 97 94 91 84 72 46 22 15 14 14 14 17 19 22 27 40 54 85 92 87 68 40 22 16 19 24 26 30 50 82 98 100 100 100 100 100 100 100 100 100 100 100 100 100 100 100 100 98 98 99 100 100 100
65 82 89 89 82 77 77 61 33 13 12 15 16 16 18 21 27 29 36 70 92 86 87 69 36 21 20 23 25 24 23 23 29 56 87 100 100 100 100 100 100 100 100 100 100 100 100 100 100 100 100 100 97 89
40 48 56 74 75 68 64 65 61 33 10 7 9 11 15 18 20 23 30 29 30 66 86 94 94 66 40 26 24 23 23 24 23 22 21 25 40 73 96 100 100 100 100 100 100 100 100 100 100 100 99 91 79 76
26 30 33 42 54 53 54 44 61 57 20 7 7 8 9 12 18 20 22 25 27 26 52 88 100 100 90 72 60 49 41 36 29 26 24 27 41 68 97 100 100 100 100 100 100 100 100 100 98 94 93 97 100 99